FW1784 Weather Reports


Display with metric or nautical units.
time (UTC)temp
F
wind
direction
speed
MPH
gust
MPH
rain 1hr
in
rain 24hr
in
rain mn
in
humidity
%
barometer
mb
20260901094603 67 234 0.0 1.0 0.00 0.09 0.07 99 1015.0
20260901093002 67 234 0.0 0.0 0.00 0.09 0.07 99 1014.9
20260901091607 67 234 0.0 1.0 0.00 0.09 0.07 99 1014.9
20260901090111 66 234 0.0 0.0 0.00 0.09 0.07 99 1015.0
20260901084506 67 234 0.0 0.0 0.00 0.09 0.07 98 1015.0
20260901083105 67 234 0.0 0.0 0.00 0.09 0.07 98 1015.3
20260901081603 67 234 0.0 0.0 0.00 0.09 0.07 98 1015.2
20260901080007 67 234 0.0 0.0 0.00 0.09 0.07 98 1015.1
20260901074505 67 234 0.0 0.0 0.01 0.09 0.07 98 1015.5
20260901073007 67 234 0.0 0.0 0.01 0.09 0.07 98 1015.6
20260901071606 67 234 0.0 0.0 0.01 0.09 0.07 98 1015.7
20260901070005 67 234 0.0 0.0 0.01 0.09 0.07 98 1015.7
20260901064503 67 234 0.0 0.0 0.00 0.08 0.06 98 1015.8
20260901063139 67 234 0.0 0.0 0.00 0.08 0.06 98 1015.9
20260901061502 67 234 0.0 0.0 0.00 0.08 0.06 98 1016.1
20260901054602 67 234 0.0 0.0 0.01 0.08 0.06 98 1016.4
20260901053002 67 234 0.0 0.0 0.03 0.08 0.06 98 1016.4
20260901051535 67 234 0.0 0.0 0.04 0.08 0.06 98 1016.6
20260901050003 67 234 0.0 0.0 0.05 0.08 0.06 98 1016.6
20260901044506 67 234 0.0 0.0 0.05 0.07 0.05 98 1016.7
20260901043103 67 234 0.0 0.0 0.03 0.05 0.03 98 1016.7
20260901041502 67 234 0.0 0.0 0.03 0.04 0.02 98 1016.6
20260901040104 67 234 0.0 0.0 0.02 0.03 0.01 98 1016.8
20260901034604 67 234 0.0 0.0 0.01 0.02 0.02 98 1016.9
20260901033009 67 234 0.0 0.0 0.01 0.02 0.02 98 1017.0
20260901031502 67 234 0.0 0.0 0.00 0.01 0.01 98 1017.0
20260901030104 67 234 0.0 0.0 0.00 0.01 0.01 98 1017.0
20260901024604 67 234 0.0 0.0 0.00 0.01 0.01 98 1017.1
20260901023002 67 236 0.0 0.0 0.00 0.01 0.01 98 1017.2
20260901021603 67 236 0.0 0.0 0.00 0.01 0.01 97 1017.3
20260901020002 67 236 0.0 0.0 0.01 0.01 0.01 97 1017.3
20260901014502 67 233 0.0 0.0 0.01 0.01 0.01 97 1017.4
20260901013002 67 232 0.0 2.0 0.01 0.01 0.01 97 1017.4
20260901011602 67 304 0.0 2.0 0.01 0.01 0.01 97 1017.3
20260901010005 67 305 0.0 2.0 0.00 0.00 0.00 97 1017.4
20260901004502 67 309 0.0 0.0 0.00 0.00 0.00 96 1017.4
20260901003109 67 309 0.0 0.0 0.00 0.00 0.00 96 1017.4
20260901001503 67 309 0.0 0.0 0.00 0.00 0.00 96 1017.4
20260831234604 67 309 0.0 0.0 0.00 0.00 0.00 96 1017.5
20260831233003 68 355 0.0 2.0 0.00 0.00 0.00 95 1017.5
20260831231613 68 355 0.0 2.0 0.00 0.00 0.00 94 1017.5
20260831230002 68 355 0.0 0.0 0.00 0.00 0.00 94 1017.7
20260831224503 69 355 0.0 0.0 0.00 0.00 0.00 93 1017.8
20260831223109 69 355 0.0 0.0 0.00 0.00 0.00 93 1017.8
20260831221504 69 355 0.0 1.0 0.00 0.00 0.00 92 1017.9
20260831214602 69 355 0.0 0.0 0.00 0.00 0.00 93 1017.8
20260831213002 69 355 0.0 0.0 0.00 0.00 0.00 93 1017.8
20260831211619 69 355 0.0 0.0 0.00 0.00 0.00 93 1018.0
20260831210002 70 355 0.0 0.0 0.00 0.00 0.00 92 1017.9
20260831204502 70 355 0.0 0.0 0.00 0.00 0.00 91 1018.1
20260831203007 70 355 0.0 0.0 0.00 0.00 0.00 91 1017.9
20260831201610 70 355 0.0 0.0 0.00 0.00 0.00 90 1018.1
20260831200006 71 355 0.0 2.0 0.00 0.00 0.00 88 1018.2
20260831194505 71 355 0.0 1.0 0.00 0.00 0.00 86 1018.2
20260831193103 70 355 0.0 0.0 0.00 0.00 0.00 87 1018.4
20260831191503 70 355 0.0 0.0 0.00 0.00 0.00 87 1018.7
20260831190108 71 355 0.0 0.0 0.00 0.00 0.00 87 1018.7
20260831184603 71 355 0.0 0.0 0.00 0.00 0.00 86 1018.8
20260831183002 72 355 0.0 0.0 0.00 0.00 0.00 83 1019.0
20260831181608 72 355 0.0 0.0 0.00 0.00 0.00 81 1019.2
20260831174604 71 355 0.0 1.0 0.00 0.00 0.00 80 1019.3
20260831173003 70 355 0.0 1.0 0.00 0.00 0.00 85 1019.6
20260831171502 70 355 0.0 0.0 0.00 0.00 0.00 86 1020.0
20260831170105 70 355 0.0 0.0 0.00 0.00 0.00 86 1020.0
20260831164602 71 355 0.0 0.0 0.00 0.00 0.00 83 1019.7
20260831163002 71 355 0.0 2.0 0.00 0.00 0.00 79 1019.8
20260831161603 72 355 0.0 0.0 0.00 0.00 0.00 81 1019.9
20260831160104 72 355 0.0 2.0 0.00 0.00 0.00 77 1019.9
20260831154603 72 355 0.0 2.0 0.00 0.00 0.00 78 1020.1
20260831153117 72 169 0.0 4.0 0.00 0.00 0.00 77 1020.0
20260831151503 72 153 0.0 5.0 0.00 0.00 0.00 77 1020.1
20260831150017 72 87 0.0 3.0 0.00 0.00 0.00 81 1020.2
20260831144658 71 257 0.0 4.0 0.00 0.00 0.00 83 1020.2
20260831143003 71 189 0.0 4.0 0.00 0.00 0.00 84 1020.1
20260831141502 71 89 0.0 3.0 0.00 0.00 0.00 83 1020.0
20260831140008 70 87 1.0 7.0 0.00 0.00 0.00 82 1019.9
20260831134602 70 20 2.0 4.0 0.00 0.00 0.00 86 1019.8
20260831133005 69 339 0.0 0.0 0.00 0.00 0.00 85 1019.7
20260831131505 69 339 0.0 0.0 0.00 0.00 0.00 86 1019.8
20260831130004 69 339 0.0 0.0 0.00 0.00 0.00 86 1020.2
20260831123002 67 339 0.0 0.0 0.00 0.00 0.00 89 1020.0
20260831121603 66 339 0.0 1.0 0.00 0.00 0.00 92 1020.0
20260831120005 65 338 0.0 0.0 0.00 0.00 0.00 96 1020.0
20260831114604 63 333 0.0 0.0 0.00 0.00 0.00 98 1020.0
20260831113001 62 333 0.0 0.0 0.00 0.00 0.00 98 1019.9
20260831110003 61 333 0.0 0.0 0.00 0.00 0.00 98 1019.3
20260831104508 61 333 0.0 0.0 0.00 0.00 0.00 97 1019.1
20260831103102 61 333 0.0 0.0 0.00 0.00 0.00 97 1019.0
20260831101503 61 333 0.0 0.0 0.00 0.00 0.00 97 1019.0
20260831100004 61 333 0.0 0.0 0.00 0.00 0.00 97 1019.2